User: anonymous   Login
Location: Caltech
(34.1382°N, 118.1253°W)
Time: 22:09:35
(UTC-08:00)
Language:

Cosmos 1606 - Orbit

View from above orbital plane
View from above orbital plane
View from above satellite
View from above satellite

Ground track
Ground track

The orbit data is extracted from the following two-line orbital elements,

1 15369U 84111A   16338.47106383  .00000905  00000-0  46273-4 0  9992
2 15369  82.5269 315.0313 0017042 212.0815 147.9381 15.15261092750824
Epoch (UTC): 03 December 2016 11:18:19
Eccentricity: 0.0017042
inclination: 82.5269°
perigee height: 508 km
apogee height: 532 km
right ascension of ascending node: 315.0313°
argument of perigee: 212.0815°
revolutions per day: 15.15261092
mean anomaly at epoch: 147.9381°
orbit number at epoch: 75082

The dashed part of the orbit path shows where the satellite is in the earth's shadow,  

DLR